When you browse on this site, cookies collect data to enhance your experience and personalize the content and advertising you see.
Visit our Privacy Policy to learn more. By continuing to use the site, you agree to this use of cookies and data.
  • In Hungary
  • List of Countries
  • For 7 days
  • Water Temperature
  • Weather Map
  • News
  • Weather Widgets
  • user-avatar
    Login

    Hourly Weather Lapichi (stanciya)

    Today, 8 April, Wednesday

    Time Temperature Precipitation Wind Pressure Humidity
    00:00 +8°C° 0 mm 4 mps 755 mmHg 64%
    01:00 +8°C° 0 mm 4 mps 755 mmHg 66%
    02:00 +8°C° 0 mm 4 mps 754 mmHg 70%
    03:00 +7°C° 0 mm 4 mps 754 mmHg 73%
    04:00 +6°C° 0 mm 4 mps 754 mmHg 76%
    05:00 +5°C° 0 mm 4 mps 754 mmHg 79%
    06:00 +6°C° 0 mm 5 mps 755 mmHg 77%
    07:00 +6°C° 0 mm 5 mps 755 mmHg 75%
    08:00 +5°C° 0 mm 6 mps 755 mmHg 73%
    09:00 +8°C° 0 mm 5 mps 755 mmHg 69%
    10:00 +9°C° 0 mm 5 mps 755 mmHg 64%
    11:00 +11°C° 0 mm 4 mps 756 mmHg 59%
    12:00 +12°C° 0 mm 5 mps 755 mmHg 54%
    13:00 +13°C° 0 mm 5 mps 755 mmHg 49%
    14:00 +14°C° 0 mm 5 mps 755 mmHg 44%
    15:00 +13°C° 0 mm 4 mps 755 mmHg 44%
    16:00 +13°C° 0 mm 4 mps 755 mmHg 43%
    17:00 +13°C° 0 mm 3 mps 755 mmHg 43%
    18:00 +11°C° 0 mm 3 mps 755 mmHg 49%
    19:00 +9°C° 0 mm 2 mps 754 mmHg 55%
    20:00 +8°C° 0 mm 2 mps 754 mmHg 60%
    21:00 +8°C° 0 mm 1 mps 754 mmHg 62%
    22:00 +8°C° 0 mm 1 mps 754 mmHg 63%
    23:00 +7°C° 0 mm 1 mps 754 mmHg 65%

    Tomorrow, 9 April, Thursday

    Time Temperature Precipitation Wind Pressure Humidity
    00:00 +6°C° 0 mm 1 mps 754 mmHg 66%
    01:00 +6°C° 0 mm 1 mps 753 mmHg 68%
    02:00 +6°C° 0 mm 1 mps 753 mmHg 69%
    03:00 +5°C° 0 mm 1 mps 753 mmHg 70%
    04:00 +4°C° 0 mm 2 mps 752 mmHg 71%
    05:00 +4°C° 0 mm 2 mps 752 mmHg 71%
    06:00 +5°C° 0 mm 2 mps 751 mmHg 67%
    07:00 +5°C° 0 mm 3 mps 751 mmHg 63%
    08:00 +7°C° 0 mm 3 mps 750 mmHg 59%
    09:00 +8°C° 0 mm 4 mps 750 mmHg 55%
    10:00 +12°C° 0 mm 4 mps 749 mmHg 50%
    11:00 +14°C° 0 mm 5 mps 748 mmHg 45%
    12:00 +15°C° 0 mm 5 mps 748 mmHg 46%
    13:00 +15°C° 0 mm 5 mps 747 mmHg 46%
    14:00 +16°C° 0 mm 6 mps 746 mmHg 46%
    15:00 +16°C° 0.1 mm 5 mps 746 mmHg 51%
    16:00 +15°C° 0.1 mm 5 mps 745 mmHg 56%
    17:00 +14°C° 0.1 mm 5 mps 745 mmHg 61%
    18:00 +13°C° 0.8 mm 4 mps 745 mmHg 70%
    19:00 +12°C° 0.8 mm 4 mps 744 mmHg 79%
    20:00 +10°C° 0.8 mm 3 mps 744 mmHg 87%
    21:00 +10°C° 0.1 mm 3 mps 745 mmHg 87%
    22:00 +9°C° 0.1 mm 3 mps 745 mmHg 87%
    23:00 +7°C° 0.1 mm 4 mps 745 mmHg 87%

    Day after tomorrow, 10 April, Friday

    Time Temperature Precipitation Wind Pressure Humidity
    00:00 +7°C° 0 mm 4 mps 745 mmHg 84%
    01:00 +6°C° 0 mm 4 mps 746 mmHg 81%
    02:00 +5°C° 0 mm 5 mps 746 mmHg 78%
    03:00 +3°C° 0 mm 5 mps 746 mmHg 77%
    04:00 +1°C° 0 mm 5 mps 747 mmHg 76%
    05:00 0°C° 0 mm 4 mps 747 mmHg 75%
    06:00 0°C° 0 mm 5 mps 748 mmHg 73%
    07:00 +1°C° 0 mm 5 mps 748 mmHg 70%
    08:00 +1°C° 0 mm 6 mps 749 mmHg 67%
    09:00 +2°C° 0 mm 6 mps 749 mmHg 62%
    10:00 +3°C° 0 mm 6 mps 749 mmHg 58%
    11:00 +5°C° 0 mm 6 mps 749 mmHg 53%
    12:00 +5°C° 0 mm 6 mps 749 mmHg 50%
    13:00 +7°C° 0 mm 6 mps 750 mmHg 47%
    14:00 +8°C° 0 mm 6 mps 750 mmHg 44%
    15:00 +7°C° 0 mm 6 mps 750 mmHg 44%
    16:00 +7°C° 0 mm 6 mps 750 mmHg 43%
    17:00 +7°C° 0 mm 6 mps 750 mmHg 43%
    18:00 +6°C° 0 mm 5 mps 750 mmHg 47%
    19:00 +5°C° 0 mm 4 mps 750 mmHg 51%
    20:00 +4°C° 0 mm 4 mps 751 mmHg 54%
    21:00 +3°C° 0 mm 4 mps 751 mmHg 54%
    22:00 +2°C° 0 mm 3 mps 751 mmHg 54%
    23:00 +1°C° 0 mm 3 mps 751 mmHg 54%

    11 April, Saturday

    Time Temperature Precipitation Wind Pressure Humidity
    00:00 +1°C° 0 mm 3 mps 751 mmHg 56%
    01:00 0°C° 0 mm 3 mps 751 mmHg 58%
    02:00 0°C° 0 mm 3 mps 752 mmHg 59%
    03:00 -1°C° 0 mm 3 mps 752 mmHg 62%
    04:00 -1°C° 0 mm 3 mps 752 mmHg 64%
    05:00 -2°C° 0 mm 3 mps 753 mmHg 67%
    06:00 -2°C° 0 mm 4 mps 753 mmHg 62%
    07:00 -1°C° 0 mm 4 mps 753 mmHg 57%
    08:00 0°C° 0 mm 4 mps 753 mmHg 52%
    09:00 +1°C° 0 mm 4 mps 753 mmHg 48%
    10:00 +3°C° 0 mm 4 mps 754 mmHg 43%
    11:00 +5°C° 0 mm 4 mps 754 mmHg 39%
    12:00 +5°C° 0 mm 4 mps 754 mmHg 37%
    13:00 +6°C° 0 mm 4 mps 754 mmHg 35%
    14:00 +7°C° 0 mm 4 mps 754 mmHg 33%
    15:00 +7°C° 0 mm 4 mps 754 mmHg 33%
    16:00 +8°C° 0 mm 3 mps 754 mmHg 34%
    17:00 +8°C° 0 mm 3 mps 754 mmHg 35%
    18:00 +6°C° 0 mm 2 mps 754 mmHg 41%
    19:00 +5°C° 0 mm 2 mps 754 mmHg 46%
    20:00 +4°C° 0 mm 1 mps 754 mmHg 52%
    21:00 +4°C° 0 mm 1 mps 755 mmHg 53%
    22:00 +3°C° 0 mm 1 mps 755 mmHg 54%
    23:00 +3°C° 0 mm 1 mps 755 mmHg 55%

    12 April, Sunday

    Time Temperature Precipitation Wind Pressure Humidity
    00:00 +3°C° 0 mm 1 mps 755 mmHg 57%
    01:00 +1°C° 0 mm 2 mps 755 mmHg 59%
    02:00 +1°C° 0 mm 2 mps 755 mmHg 61%
    03:00 -1°C° 0 mm 2 mps 754 mmHg 61%
    04:00 -1°C° 0 mm 2 mps 754 mmHg 62%
    05:00 -1°C° 0 mm 2 mps 754 mmHg 63%
    06:00 0°C° 0 mm 3 mps 754 mmHg 57%
    07:00 +2°C° 0 mm 3 mps 753 mmHg 52%
    08:00 +4°C° 0 mm 3 mps 753 mmHg 47%
    09:00 +5°C° 0 mm 4 mps 753 mmHg 44%
    10:00 +7°C° 0 mm 4 mps 752 mmHg 41%
    11:00 +9°C° 0 mm 5 mps 751 mmHg 38%
    12:00 +9°C° 0 mm 5 mps 751 mmHg 39%
    13:00 +9°C° 0 mm 5 mps 750 mmHg 41%
    14:00 +10°C° 0 mm 5 mps 750 mmHg 42%
    15:00 +10°C° 0 mm 5 mps 749 mmHg 45%
    16:00 +10°C° 0 mm 5 mps 748 mmHg 48%
    17:00 +11°C° 0 mm 4 mps 747 mmHg 50%
    18:00 +10°C° 0 mm 4 mps 747 mmHg 55%
    19:00 +8°C° 0 mm 4 mps 746 mmHg 59%
    20:00 +8°C° 0 mm 3 mps 745 mmHg 64%
    21:00 +7°C° 0 mm 4 mps 745 mmHg 63%
    22:00 +7°C° 0 mm 4 mps 744 mmHg 62%
    23:00 +7°C° 0 mm 4 mps 743 mmHg 61%

    13 April, Monday

    Time Temperature Precipitation Wind Pressure Humidity
    00:00 +7°C° 0 mm 4 mps 743 mmHg 63%
    01:00 +7°C° 0 mm 4 mps 742 mmHg 65%
    02:00 +7°C° 0 mm 4 mps 741 mmHg 67%
    03:00 +7°C° 0 mm 4 mps 740 mmHg 69%
    04:00 +6°C° 0 mm 5 mps 739 mmHg 71%
    05:00 +6°C° 0 mm 5 mps 738 mmHg 73%
    06:00 +7°C° 0.2 mm 5 mps 738 mmHg 74%
    07:00 +7°C° 0.2 mm 6 mps 737 mmHg 75%
    08:00 +8°C° 0.2 mm 6 mps 737 mmHg 77%
    09:00 +10°C° 0 mm 6 mps 736 mmHg 73%
    10:00 +11°C° 0 mm 6 mps 735 mmHg 69%
    11:00 +14°C° 0 mm 7 mps 735 mmHg 65%
    12:00 +14°C° 0.3 mm 7 mps 734 mmHg 64%
    13:00 +15°C° 0.3 mm 7 mps 733 mmHg 62%
    14:00 +15°C° 0.3 mm 8 mps 733 mmHg 61%
    15:00 +12°C° 2.1 mm 7 mps 732 mmHg 68%
    16:00 +10°C° 2.1 mm 6 mps 732 mmHg 75%
    17:00 +9°C° 2.1 mm 5 mps 731 mmHg 81%
    18:00 +8°C° 0.3 mm 5 mps 732 mmHg 84%
    19:00 +7°C° 0.3 mm 5 mps 732 mmHg 86%
    20:00 +6°C° 0.3 mm 5 mps 732 mmHg 89%
    21:00 +3°C° 0.3 mm 5 mps 733 mmHg 87%
    22:00 +2°C° 0.3 mm 5 mps 733 mmHg 85%
    23:00 0°C° 0.3 mm 5 mps 734 mmHg 84%
    Show more